Hourly Data Report for September 23, 2017

All times are specified in Local Standard Time (LST). Add 1 hour to adjust for Daylight Saving Time where and when it is observed.

KOUCHIBOUGUAC CS
NEW BRUNSWICK

46°47'00.000" N
65°01'00.000" W
21.00 m
8102328
71670
AKC

Download Data

Hourly Data (September 2017)
Hourly Data Report for September 23, 2017
Temp Definition
°C
Dew Point Temp Definition
°C
Rel Hum Definition
%
Wind Dir Definition
10's deg

Wind Spd Definition
km/h
Visibility Definition
km
Stn Press Definition
kPa
Hmdx Definition


Wind Chill Definition


Weather Definition


TIME
00:00 7.9 7.5 97   0   101.60     LegendNANA
01:00 7.7 7.3 97 21 2   101.57     LegendNANA
02:00 7.7 6.8 94 23 2   101.50     LegendNANA
03:00 10.3 8.0 85 20 4   101.41     LegendNANA
04:00 11.4 8.1 80 23 5   101.36     LegendNANA
05:00 11.8 7.7 76 22 6   101.33     LegendNANA
06:00 12.3 8.0 75 22 8   101.26     LegendNANA
07:00 12.0 7.9 76 22 7   101.27     LegendNANA
08:00 15.5 8.5 63 22 8   101.22     LegendNANA
09:00 18.8 9.5 55 25 6   101.19     LegendNANA
10:00 22.3 7.7 39 23 10   101.15     LegendNANA
11:00 24.8 6.6 31 24 11   101.13 25   LegendNANA
12:00 26.4 9.1 34 24 9   101.07 27   LegendNANA
13:00 27.6 11.0 36 25 9   101.03 29   LegendNANA
14:00 28.5 12.3 37 26 10   100.97 31   LegendNANA
15:00 28.1 14.6 44 26 7   100.92 32   LegendNANA
16:00 28.8 15.8 45 32 11   100.94 33   LegendNANA
17:00 27.3 15.1 47 35 11   101.03 31   LegendNANA
18:00 23.7 16.2 63 3 4   101.13 28   LegendNANA
19:00 19.7 15.7 78 4 2   101.26     LegendNANA
20:00 17.6 11.0 65 8 7   101.47     LegendNANA
21:00 16.5 10.9 70 10 5   101.50     LegendNANA
22:00 12.8 10.9 88   0   101.56     LegendNANA
23:00 11.0 9.9 93   0   101.55     LegendNANA

Notes on Data Quality.

Legend

  • E = Estimated
  • M = Missing
  • NA = Not Available
  • ‡ = Partner data that is not subject to review by the National Climate Archives
Date modified: